TimeCST,TemperatureF,Dew PointF,Humidity,Sea Level PressureIn,VisibilityMPH,Wind Direction,Wind SpeedMPH,Gust SpeedMPH,PrecipitationIn,Events,Conditions,WindDirDegrees,DateUTC
12:07 AM,-2.2,-5.8,85,30.10,10.0,North,3.5,-,N/A,,Overcast,350,2012-12-24 06:07:00
12:27 AM,-2.2,-5.8,85,30.10,10.0,NNW,5.8,-,N/A,,Overcast,340,2012-12-24 06:27:00
12:46 AM,-2.2,-5.8,85,30.10,10.0,NNW,4.6,-,N/A,,Overcast,330,2012-12-24 06:46:00
1:07 AM,-2.2,-5.8,85,30.11,10.0,North,3.5,-,N/A,,Mostly Cloudy,350,2012-12-24 07:07:00
1:27 AM,-2.2,-7.6,78,30.11,10.0,NNW,6.9,-,N/A,,Overcast,330,2012-12-24 07:27:00
1:46 AM,-2.2,-7.6,78,30.10,10.0,NNW,4.6,-,N/A,,Overcast,340,2012-12-24 07:46:00
2:07 AM,-2.2,-7.6,78,30.11,10.0,NW,3.5,-,N/A,,Scattered Clouds,320,2012-12-24 08:07:00
2:26 AM,-2.2,-7.6,78,30.12,10.0,NW,5.8,-,N/A,,Mostly Cloudy,310,2012-12-24 08:26:00
2:47 AM,-4.0,-7.6,85,30.12,10.0,NNW,4.6,-,N/A,,Overcast,330,2012-12-24 08:47:00
3:07 AM,-4.0,-7.6,85,30.12,10.0,NW,5.8,-,N/A,,Overcast,320,2012-12-24 09:07:00
3:26 AM,-4.0,-7.6,85,30.11,10.0,NW,4.6,-,N/A,,Overcast,320,2012-12-24 09:26:00
3:47 AM,-5.8,-9.4,84,30.11,10.0,NNW,5.8,-,N/A,,Overcast,340,2012-12-24 09:47:00
4:07 AM,-5.8,-9.4,84,30.11,10.0,NW,4.6,-,N/A,,Overcast,320,2012-12-24 10:07:00
4:26 AM,-5.8,-9.4,84,30.12,10.0,NW,8.1,-,N/A,,Mostly Cloudy,310,2012-12-24 10:26:00
4:47 AM,-5.8,-9.4,84,30.12,10.0,NW,5.8,-,N/A,,Mostly Cloudy,310,2012-12-24 10:47:00
5:07 AM,-5.8,-9.4,84,30.12,10.0,NW,8.1,-,N/A,,Mostly Cloudy,310,2012-12-24 11:07:00
5:26 AM,-5.8,-9.4,84,30.12,10.0,NW,6.9,-,N/A,,Scattered Clouds,320,2012-12-24 11:26:00
5:47 AM,-7.6,-11.2,84,30.12,10.0,NW,8.1,-,N/A,,Clear,320,2012-12-24 11:47:00
6:06 AM,-7.6,-11.2,84,30.12,10.0,NW,3.5,-,N/A,,Clear,310,2012-12-24 12:06:00
6:26 AM,-7.6,-11.2,84,30.12,10.0,NW,3.5,-,N/A,,Mostly Cloudy,310,2012-12-24 12:26:00
6:47 AM,-7.6,-11.2,84,30.12,10.0,WNW,3.5,-,N/A,,Overcast,290,2012-12-24 12:47:00
7:06 AM,-7.6,-11.2,84,30.13,10.0,WNW,3.5,-,N/A,,Mostly Cloudy,290,2012-12-24 13:06:00
7:26 AM,-7.6,-11.2,84,30.13,10.0,West,5.8,-,N/A,,Scattered Clouds,280,2012-12-24 13:26:00
7:47 AM,-7.6,-11.2,84,30.13,10.0,West,3.5,-,N/A,,Mostly Cloudy,280,2012-12-24 13:47:00
8:06 AM,-7.6,-11.2,84,30.13,10.0,WNW,4.6,-,N/A,,Overcast,290,2012-12-24 14:06:00
8:26 AM,-7.6,-9.4,92,30.13,10.0,WNW,4.6,-,N/A,,Mostly Cloudy,300,2012-12-24 14:26:00
8:47 AM,-7.6,-9.4,92,30.13,10.0,WNW,3.5,-,N/A,,Scattered Clouds,290,2012-12-24 14:47:00
9:06 AM,-5.8,-9.4,84,30.14,10.0,West,5.8,-,N/A,,Clear,280,2012-12-24 15:06:00
9:26 AM,-5.8,-9.4,84,30.15,10.0,West,5.8,-,N/A,,Clear,280,2012-12-24 15:26:00
9:47 AM,-5.8,-9.4,84,30.15,10.0,WNW,6.9,-,N/A,,Mostly Cloudy,290,2012-12-24 15:47:00
10:06 AM,-5.8,-9.4,84,30.16,10.0,WNW,6.9,-,N/A,,Mostly Cloudy,290,2012-12-24 16:06:00
10:26 AM,-4.0,-9.4,78,30.18,10.0,West,5.8,-,N/A,,Scattered Clouds,280,2012-12-24 16:26:00
10:47 AM,-4.0,-9.4,78,30.19,10.0,WNW,5.8,-,N/A,,Mostly Cloudy,290,2012-12-24 16:47:00
11:06 AM,-2.2,-9.4,71,30.19,10.0,West,4.6,-,N/A,,Overcast,280,2012-12-24 17:06:00
11:26 AM,-2.2,-7.6,78,30.19,10.0,West,5.8,-,N/A,,Scattered Clouds,260,2012-12-24 17:26:00
11:47 AM,-2.2,-7.6,78,30.19,10.0,WSW,6.9,-,N/A,,Clear,250,2012-12-24 17:47:00
12:06 PM,-2.2,-7.6,78,30.19,10.0,WSW,6.9,-,N/A,,Scattered Clouds,250,2012-12-24 18:06:00
12:27 PM,-2.2,-7.6,78,30.19,10.0,WSW,6.9,-,N/A,,Scattered Clouds,250,2012-12-24 18:27:00
12:47 PM,-0.4,-5.8,78,30.18,10.0,West,6.9,-,N/A,,Scattered Clouds,260,2012-12-24 18:47:00
1:06 PM,-0.4,-5.8,78,30.18,10.0,WSW,8.1,-,N/A,,Clear,250,2012-12-24 19:06:00
1:27 PM,-0.4,-5.8,78,30.18,10.0,WSW,8.1,-,N/A,,Scattered Clouds,250,2012-12-24 19:27:00
1:46 PM,-0.4,-5.8,78,30.18,10.0,WSW,5.8,-,N/A,,Clear,250,2012-12-24 19:46:00
2:07 PM,-0.4,-5.8,78,30.18,10.0,WSW,6.9,-,N/A,,Clear,250,2012-12-24 20:07:00
2:26 PM,1.4,-5.8,72,30.18,10.0,West,5.8,-,N/A,,Clear,260,2012-12-24 20:26:00
2:46 PM,-0.4,-5.8,78,30.18,10.0,West,6.9,-,N/A,,Clear,260,2012-12-24 20:46:00
3:07 PM,-0.4,-5.8,78,30.18,10.0,WSW,6.9,-,N/A,,Clear,250,2012-12-24 21:07:00
3:26 PM,-0.4,-5.8,78,30.18,10.0,West,5.8,-,N/A,,Clear,270,2012-12-24 21:26:00
3:46 PM,-0.4,-5.8,78,30.19,10.0,West,6.9,-,N/A,,Clear,260,2012-12-24 21:46:00
4:07 PM,-0.4,-5.8,78,30.19,10.0,West,5.8,-,N/A,,Clear,260,2012-12-24 22:07:00
4:26 PM,-2.2,-5.8,85,30.20,10.0,West,6.9,-,N/A,,Clear,260,2012-12-24 22:26:00
4:46 PM,-2.2,-7.6,78,30.20,10.0,West,8.1,-,N/A,,Clear,260,2012-12-24 22:46:00
5:07 PM,-2.2,-7.6,78,30.21,10.0,West,6.9,-,N/A,,Clear,270,2012-12-24 23:07:00
5:26 PM,-2.2,-7.6,78,30.21,10.0,West,8.1,-,N/A,,Clear,270,2012-12-24 23:26:00
5:46 PM,-4.0,-9.4,78,30.22,10.0,West,8.1,-,N/A,,Clear,270,2012-12-24 23:46:00
6:07 PM,-5.8,-9.4,84,30.23,10.0,West,6.9,-,N/A,,Clear,270,2012-12-25 00:07:00
6:26 PM,-5.8,-9.4,84,30.23,10.0,West,5.8,-,N/A,,Scattered Clouds,270,2012-12-25 00:26:00
6:46 PM,-5.8,-9.4,84,30.24,10.0,West,8.1,-,N/A,,Scattered Clouds,280,2012-12-25 00:46:00
7:07 PM,-5.8,-9.4,84,30.25,10.0,West,9.2,-,N/A,,Scattered Clouds,270,2012-12-25 01:07:00
7:26 PM,-5.8,-11.2,77,30.25,10.0,West,8.1,-,N/A,,Scattered Clouds,260,2012-12-25 01:26:00
7:47 PM,-7.6,-11.2,84,30.25,10.0,West,8.1,-,N/A,,Mostly Cloudy,260,2012-12-25 01:47:00
8:07 PM,-7.6,-11.2,84,30.25,10.0,West,6.9,-,N/A,,Scattered Clouds,260,2012-12-25 02:07:00
8:26 PM,-7.6,-11.2,84,30.26,10.0,West,6.9,-,N/A,,Clear,270,2012-12-25 02:26:00
8:47 PM,-7.6,-13.0,77,30.27,10.0,West,8.1,-,N/A,,Clear,260,2012-12-25 02:47:00
9:07 PM,-7.6,-11.2,84,30.27,10.0,West,9.2,-,N/A,,Scattered Clouds,270,2012-12-25 03:07:00
9:26 PM,-7.6,-11.2,84,30.27,10.0,West,6.9,-,N/A,,Overcast,260,2012-12-25 03:26:00
9:47 PM,-7.6,-11.2,84,30.28,10.0,West,8.1,-,N/A,,Overcast,260,2012-12-25 03:47:00
10:06 PM,-7.6,-11.2,84,30.28,10.0,WSW,9.2,-,N/A,,Overcast,250,2012-12-25 04:06:00
10:26 PM,-9.4,-13.0,84,30.29,10.0,WSW,8.1,-,N/A,,Overcast,250,2012-12-25 04:26:00
10:47 PM,-9.4,-13.0,84,30.30,10.0,West,8.1,-,N/A,,Overcast,260,2012-12-25 04:47:00
11:06 PM,-9.4,-13.0,84,30.30,10.0,West,9.2,-,N/A,,Overcast,260,2012-12-25 05:06:00
11:26 PM,-9.4,-13.0,84,30.30,10.0,West,9.2,-,N/A,,Overcast,260,2012-12-25 05:26:00
11:47 PM,-9.4,-14.8,77,30.31,10.0,West,9.2,-,N/A,,Overcast,260,2012-12-25 05:47:00